星链-4678 (STARLINK-4678 )

导读 | 星芒AI

STARLINK-4678 是 SpaceX Starlink 项目中的一颗低轨通信卫星,属于第 21 批 Starlink 卫星发射任务的一部分。该卫星运行在约 550 公里的高度,旨在为全球用户提供高速互联网服务。Starlink 卫星采用先进推进系统和激光通信技术,以提高网络效率和减少延迟。STARLINK-4678 与星座中其他卫星协同工作,支持偏远地区的宽带接入,推动全球互联网覆盖的扩展。

基本信息
目录编号:
53780
目录名称:
STARLINK-4678
国际标识:
2022-111H
轨道中心:
EARTH
卫星名称:
星链-4678
卫星全名:
星链-4678 (STARLINK-4678 )
卫星状态:
在轨 (已飞行1150 天)
发射日期:
2022-09-11 UTC
国别 :
美国 (US)
星等 :
--
轨道信息
数据来源 国际轨道数据 AOE轨道数据
星历时间 2025-11-04T19:56:25+0800
6小时前
查看轨道信息
2025-11-04T08:00:00+0800
18小时前
查看轨道信息
半长轴 6917.886km 6917.879km
偏心率 0.0001463 0.0001477
轨道倾角 53.215° 53.214°
近地点辐角 89.318° 91.504°
升交点赤经 116.325° 118.558°
平近点角 270.798° 84.752°
近地点 538.738km 538.722km
远地点 540.764km 540.766km
周期 95.438分钟 95.438分钟
每日圈数 15.088384 15.088406
详细信息
固有亮度:
5
最大亮度:
2.5
卫星平台:
Starlink v1.5
覆盖范围:
全球
运营商:
太空探索技术公司
运营商所在国:
美国
制造商(研发单位):
太空探索技术公司
制造商所在国:
美国
使用方式:
暂无
卫星简介
星链(Starlink)计划是由太空探索技术公司(SpaceX)提出的一个巨型低轨卫星互联网星座项目,计划在2019年至2024年间在太空搭建由约1.2万颗卫星组成的“星链”网络,其中1584颗将部署在地球上空550千米处的近地轨道,并从2020年开始工作。该卫星仍在工作。
2D轨道图
3D轨道图
轨道高度分析图
轨道倾角分析图
轨道综合分析图
查看轨道综合分析图